Regional Weather Roundup
Issued by NWS

Home | Current Version | Previous Version | Text Only | Print | Product List | Glossary Off
Versions: 1 2 3 4 5 6 7 8 9 10 11 12 13 14 15 16 17 18 19 20 21 22 23 24 25 26 27 28 29 30 31 32 33 34 35 36 37 38 39 40 41 42 43 44 45 46 47 48 49 50

000
ASUS43 KBIS 251110
RWRND

NORTH DAKOTA REGIONAL WEATHER ROUNDUP
NATIONAL WEATHER SERVICE BISMARCK ND
600 AM CDT THU AUG 25 2016

NOTE: "FAIR" INDICATES FEW OR NO CLOUDS BELOW 12,000 FEET WITH NO
SIGNIFICANT WEATHER AND/OR OBSTRUCTIONS TO VISIBILITY.


NDZ001>003-009>011-017-251200-
NORTHWEST NORTH DAKOTA

CITY           SKY/WX    TMP DP  RH WIND       PRES   REMARKS
WILLISTON      CLOUDY    54  46  74 NW8       30.18R
MINOT          LGT RAIN  53  52  96 NW20      30.08R FOG
MINOT AFB      CLOUDY    52  52 100 NW18      30.07R
$$

NDZ018>021-031>035-040>046-251200-
SOUTHWEST NORTH DAKOTA

CITY           SKY/WX    TMP DP  RH WIND       PRES   REMARKS
BISMARCK       CLOUDY    57  48  72 NW14G23   30.11R
DICKINSON      PTCLDY    49  45  86 W12       30.15S
GARRISON         N/A     53  50  89 NW14      30.09S
HETTINGER ARPT CLEAR     45  43  93 W9        30.21R
$$

NDZ004>008-012>016-024-026-027-054-251200-
NORTHEAST NORTH DAKOTA

CITY           SKY/WX    TMP DP  RH WIND       PRES   REMARKS
GRAND FORKS    CLOUDY    60  54  80 W12       29.91R
GRND FRKS AFB  CLOUDY    59  53  80 W15       29.92S
DEVILS LAKE    CLOUDY    56  53  90 NW18      29.98R
$$

NDZ022-023-025-028>030-036>039-047>053-251200-
SOUTHEAST NORTH DAKOTA

CITY           SKY/WX    TMP DP  RH WIND       PRES   REMARKS
FARGO          MOCLDY    56  51  84 SW10      29.99R
JAMESTOWN      CLOUDY    56  51  84 W12       30.03R
$$




USA.gov is the U.S. government's official web portal to all federal, state and local government web resources and services.